CAPE
757 711 833 979 1135 1243 1351 1419 1484 1511 1509 1439 1262 1063 963 919 910 937 980 1052 733 305 18 0 0 0 0 0 0 43 479 840
711 723 720 767 928 996 1025 1148 1287 1381 1390 1222 984 830 729 727 859 894 1143 1111 889 513 124 13 0 0 0 0 0 0 533 896
758 663 595 584 522 689 888 1083 1157 1115 958 790 697 608 568 645 616 770 1102 1099 896 515 204 16 0 0 0 0 0 169 667 579
573 405 375 568 672 456 423 519 545 588 620 631 545 389 322 389 422 1282 1154 1043 820 526 211 8 0 0 0 0 0 331 544 413
749 618 618 643 716 337 362 383 398 442 450 446 332 333 666 618 813 981 945 873 621 382 95 0 0 0 0 0 0 204 383 316
1088 995 986 661 982 609 136 179 260 164 373 414 100 438 821 811 954 845 666 656 514 238 7 0 0 0 0 0 0 113 214 147
1279 1186 1225 1185 1271 797 455 352 204 207 403 648 696 387 974 966 795 784 729 606 394 131 40 0 0 0 0 0 0 86 210 32
1471 1461 1361 1373 1496 1377 996 821 659 710 727 875 1022 868 967 1216 1122 968 884 835 521 300 139 3 0 0 0 0 0 0 2 6
1558 1698 1613 1528 1636 1802 1654 1120 1104 1054 1151 1086 1200 1216 1108 1332 1114 1099 1141 1017 756 355 104 0 0 0 0 0 0 0 0 0
1858 1740 1770 1722 1604 1637 1706 1709 1668 1321 1371 1371 1407 1434 1345 1116 1035 869 959 989 418 183 23 0 0 0 0 0 0 0 0 0
2195 1907 1749 1784 1669 1559 1506 1571 1551 1514 1578 1467 1551 1590 1426 1170 1025 886 969 876 657 43 0 0 0 0 0 0 0 0 0 0
2146 2008 1871 1663 1456 1347 1266 1191 1249 1327 1512 1632 1779 1785 1712 1424 1234 1099 1058 969 839 315 1 0 0 0 0 0 0 0 0 0
1896 1833 1392 1129 952 962 953 1048 986 965 1135 1294 1392 1475 1398 1242 1368 1322 1118 1053 917 589 104 0 0 0 0 0 0 0 0 0
1051 1288 1310 1151 945 893 774 662 507 587 636 734 943 1137 1344 1255 1217 1295 1065 1076 949 831 388 9 0 0 0 0 0 0 0 0
0 0 0 71 946 527 274 300 304 279 242 211 250 306 430 645 789 854 860 690 738 547 495 297 16 0 0 0 0 0 0 0
0 0 0 0 41 68 82 16 92 0 8 300 424 401 298 270 272 194 82 212 264 333 266 150 16 0 0 0 0 0 0 0
0 0 0 0 0 0 0 0 0 0 0 0 0 0 109 66 131 103 67 60 23 32 40 19 7 0 0 0 0 0 0 0
0 0 0 0 0 0 0 0 0 0 0 0 0 0 0 9 16 5 15 18 15 9 15 24 10 8 1 0 0 0 0 0
0 0 0 0 0 0 0 0 0 0 0 0 0 0 0 0 0 0 0 0 0 0 9 19 18 6 5 13 5 1 0 0
0 0 0 0 0 0 0 0 0 0 0 0 0 0 0 0 0 0 0 0 0 0 0 0 3 3 1 1 3 11 12 35
CIN
-490 -448 -402 -352 -308 -286 -243 -221 -193 -176 -162 -157 -168 -177 -193 -198 -186 -165 -141 -117 -168 -261 -366 -0 -0 -0 -0 -0 -0 -252 -92 -28
-455 -441 -444 -400 -345 -312 -293 -261 -210 -185 -166 -173 -192 -209 -225 -227 -179 -155 -96 -98 -137 -219 -321 -377 -0 -0 -0 -0 -0 -9 -109 -31
-433 -440 -446 -425 -421 -351 -282 -225 -194 -182 -204 -229 -246 -254 -256 -223 -226 -170 -99 -91 -131 -218 -298 -332 -0 -0 -0 -0 -0 -211 -85 -95
-454 -477 -477 -423 -359 -391 -374 -316 -298 -273 -266 -264 -282 -309 -329 -290 -273 -73 -98 -123 -165 -234 -324 -380 -0 -0 -0 -0 -0 -168 -112 -116
-372 -402 -396 -382 -329 -415 -369 -333 -302 -275 -271 -270 -301 -291 -203 -206 -166 -129 -151 -172 -234 -291 -389 -0 -0 -0 -0 -0 -0 -192 -146 -143
-332 -334 -297 -328 -263 -292 -427 -382 -328 -342 -266 -241 -349 -225 -153 -151 -123 -158 -200 -224 -252 -323 -442 -0 -0 -0 -0 -0 -0 -259 -197 -206
-292 -319 -271 -214 -191 -205 -279 -296 -331 -314 -252 -195 -165 -203 -107 -111 -125 -129 -146 -183 -243 -319 -359 -0 -0 -0 -0 -0 -0 -226 -224 -318
-216 -240 -232 -167 -140 -118 -141 -166 -194 -179 -178 -152 -120 -96 -75 -40 -62 -88 -94 -98 -166 -234 -286 -429 -0 -0 -0 -0 -0 -0 -130 -360
-152 -162 -152 -152 -79 -26 -35 -102 -112 -113 -102 -106 -83 -58 -50 -20 -26 -29 -28 -43 -111 -208 -281 -0 -0 -0 -0 -0 -0 -0 -0 -0
-124 -120 -124 -121 -97 -50 -35 -46 -31 -50 -65 -63 -46 -39 -35 -46 -33 -39 -29 -26 -80 -218 -303 -0 -0 -0 -0 -0 -0 -0 -0 -0
-98 -111 -110 -100 -89 -63 -61 -54 -55 -53 -43 -41 -35 -26 -27 -42 -49 -46 -33 -40 -44 -158 -0 -0 -0 -0 -0 -0 -0 -0 -0 -0
-97 -90 -74 -82 -85 -75 -74 -87 -89 -73 -61 -50 -28 -17 -17 -29 -33 -32 -27 -25 -35 -83 -40 -0 -0 -0 -0 -0 -0 -0 -0 -0
-120 -115 -101 -113 -128 -97 -78 -64 -74 -87 -77 -70 -51 -31 -30 -29 -19 -7 -15 -13 -24 -37 -135 -0 -0 -0 -0 -0 -0 -0 -0 -0
-109 -81 -62 -85 -111 -128 -118 -112 -121 -98 -102 -101 -72 -49 -25 -25 -25 -15 -15 -8 -15 -22 -41 -37 -0 -0 -0 -0 -0 -0 -0 -0
-0 -0 -0 -270 -71 -143 -177 -157 -134 -134 -151 -171 -161 -136 -93 -39 -17 -13 -11 -12 -12 -24 -22 -26 -78 -0 -0 -0 -0 -0 -0 -0
-0 -0 -0 -0 -38 -281 -217 -40 -173 -33 -28 -71 -30 -42 -56 -63 -60 -89 -161 -82 -71 -45 -33 -48 -153 -0 -0 -0 -0 -0 -0 -0
-0 -0 -0 -0 -0 -0 -0 -0 -0 -0 -0 -0 -0 -0 -82 -93 -59 -84 -105 -116 -94 -74 -60 -65 -24 -0 -0 -0 -0 -0 -0 -0
-0 -0 -0 -0 -0 -0 -0 -0 -0 -0 -0 -0 -0 -0 -0 -17 -11 -10 -12 -9 -10 -12 -14 -3 -6 -13 -2 -0 -0 -0 -0 -0
-0 -0 -0 -0 -0 -0 -0 -0 -0 -0 -0 -0 -0 -0 -0 -0 -0 -0 -0 -0 -0 -5 -13 -9 -14 -17 -1 -12 -28 -0 -0 -0
-0 -0 -0 -0 -0 -0 -0 -0 -0 -0 -0 -0 -0 -0 -0 -0 -0 -0 -0 -0 -0 -0 -0 -1 -2 -4 -3 -1 -6 -12 -16 -22
Wind_Speed
8 10 10 8 8 7 8 8 8 8 7 7 8 8 9 9 10 11 12 13 14 14 14 14 14 14 14 13 14 15 14 13
10 10 10 9 8 9 8 7 7 6 6 5 5 6 7 8 8 9 10 11 11 12 13 13 13 14 13 12 13 15 12 12
10 11 10 8 7 6 6 6 6 5 5 4 4 5 5 6 7 7 8 8 9 10 11 11 11 12 11 11 12 14 12 12
10 10 9 8 5 5 4 5 4 4 3 3 3 4 4 4 5 5 6 6 6 7 8 9 9 9 10 9 10 12 11 11
9 9 8 8 5 5 3 3 3 3 3 3 3 4 4 4 4 4 4 4 4 4 5 6 6 7 8 8 8 9 9 10
9 9 7 7 4 4 5 3 3 3 4 5 5 5 4 4 4 3 2 3 2 2 2 3 2 4 5 4 6 6 7 8
9 8 7 6 6 6 6 6 6 7 7 7 6 8 6 4 4 3 2 1 2 2 2 2 3 2 3 7 7 6 5 6
9 8 8 6 5 7 6 6 7 7 7 7 7 6 4 4 3 3 2 1 1 2 1 1 1 3 5 6 8 7 7 4
9 7 8 6 6 2 1 2 4 4 4 5 5 4 2 1 2 2 3 3 4 3 3 6 3 7 9 8 9 10 9 5
6 7 5 3 1 4 7 11 6 1 2 1 4 3 2 2 3 4 5 7 7 3 4 8 10 11 13 11 9 11 11 9
2 2 2 0 1 4 6 9 11 12 7 4 3 3 3 3 4 5 7 9 11 10 10 11 13 14 16 15 12 12 13 13
3 2 3 4 5 8 11 11 11 12 12 12 10 6 6 6 7 8 9 10 13 14 13 13 15 15 17 17 15 14 15 14
7 5 5 5 6 7 9 11 12 13 12 13 13 13 14 13 13 11 11 11 12 15 15 15 15 15 18 19 20 17 16 17
7 7 7 6 7 9 10 10 13 14 13 13 14 15 14 14 14 14 15 15 15 17 18 20 19 17 20 23 26 26 21 21
8 8 11 9 6 7 10 10 12 13 13 14 13 13 14 14 16 18 18 19 21 21 21 22 27 25 20 23 27 31 28 25
8 10 12 9 7 8 9 11 11 15 17 13 15 13 15 15 16 17 19 20 21 22 23 24 26 27 28 26 28 28 32 36
9 9 10 9 9 9 10 12 13 15 17 18 19 18 17 17 18 19 21 21 22 23 24 25 25 27 28 30 31 32 31 33
10 8 8 9 10 11 12 15 17 20 23 23 23 23 24 21 21 22 22 23 24 25 26 28 29 29 29 30 31 33 35 37
9 9 9 9 11 13 15 16 19 21 22 22 24 25 25 27 27 26 26 27 27 29 30 31 31 33 32 33 34 37 38 39
7 8 10 10 12 14 16 18 20 22 24 26 27 27 27 26 26 27 28 29 30 31 31 32 33 33 35 37 38 37 37 39
Wind_Direction
96 110 109 108 104 101 101 100 101 97 89 81 76 77 74 67 66 63 60 63 58 52 51 45 42 39 41 48 33 17 37 51
102 109 107 106 105 109 107 106 104 98 85 75 67 68 67 70 67 60 62 61 56 49 46 41 33 30 40 40 27 10 42 63
102 110 110 104 97 95 94 99 102 92 79 70 65 63 66 72 67 69 67 55 40 47 49 47 41 41 47 48 36 22 41 44
104 113 112 102 79 76 65 76 82 75 59 59 63 71 83 83 75 76 72 65 51 47 53 51 47 56 50 63 56 41 47 40
110 114 114 108 74 92 62 57 60 72 81 97 99 100 108 101 74 64 58 64 52 53 48 51 55 63 72 76 77 64 47 45
126 120 113 115 71 87 104 99 107 111 123 132 142 143 136 136 141 116 92 46 60 59 52 48 72 81 77 97 77 68 57 51
142 130 124 111 102 110 107 110 123 139 143 148 148 159 155 146 148 143 140 86 113 91 74 48 49 94 39 19 23 42 55 39
139 135 129 127 121 137 133 129 136 135 139 144 149 145 147 157 169 180 196 243 271 211 192 354 344 347 343 340 347 348 354 7
151 142 137 140 152 118 56 167 156 160 156 159 163 165 170 202 231 255 257 292 244 250 272 327 313 325 324 317 313 321 324 331
152 148 146 143 152 296 323 330 324 251 246 226 187 190 220 281 284 271 287 317 329 274 293 315 318 316 315 310 305 310 311 310
274 172 155 124 317 298 305 312 317 318 312 294 248 236 260 269 281 288 293 305 310 309 306 304 307 311 310 306 297 297 300 303
276 307 300 310 319 312 304 300 306 311 315 311 314 305 307 305 305 303 304 293 302 307 303 302 304 303 307 302 294 291 293 291
294 291 293 299 317 325 309 305 306 304 304 308 308 308 307 305 306 300 303 299 296 298 301 298 294 302 305 303 300 291 284 287
309 303 301 300 307 313 313 304 307 308 307 303 302 302 306 304 301 301 302 298 299 300 298 297 294 290 293 304 300 297 289 287
325 326 317 306 309 328 331 328 329 326 324 322 323 321 317 310 307 306 305 301 298 298 297 294 296 294 280 291 301 295 296 289
322 329 331 334 330 327 328 322 324 328 327 324 326 325 325 323 320 317 312 309 306 304 304 300 299 293 290 279 282 299 296 297
319 324 330 334 330 330 331 327 326 327 329 328 327 327 323 321 318 314 313 311 308 306 305 302 299 297 291 288 284 283 289 292
313 317 321 329 330 329 327 323 321 319 319 320 323 325 327 323 321 319 315 312 310 309 307 305 303 298 295 289 283 283 278 279
301 306 310 320 323 323 323 323 321 320 321 322 322 321 322 323 325 322 319 317 314 312 309 305 304 302 302 295 290 287 286 285
298 303 305 311 315 318 322 323 321 319 319 318 319 319 320 322 324 323 321 319 317 315 313 310 307 306 302 299 298 298 293 285